METEOR 2-7 DEB

Satellite information

Favourite Embed

Satellite Type and Status

DEBRISIN ORBIT

Key statistics

Satellite METEOR 2-7 DEB at a glance.

Uptime

16186

Days in orbit

Revolutions

≈ 14.3

Per day

Orbit

LEO

Low Earth Orbit

Inclination

81.3

Latest

Satellite identification and parameters

Extended collection of information and parameters for METEOR 2-7 DEB.

Object identification

Identified? True

Debris? True

Object name: METEOR 2-7 DEB

International designator: 1981-043Y

Object number (NORAD): 43301

Object ID (CCSDS): 43301

Country: COMMONWEALTH OF INDEPENDENT STATES (CIS)

Current information (Y/N): Y

RCS size: SMALL

Orbital parameters

Period: 100.833 minutes

Inclination: 81.2617 deg

SMA: 7176.205 km

Apoapsis: 831.769 km

Periapsis: 764.371 km

RAAN: 351.9956 deg

Eccentricy: 0.00469589

Argument of periapsis: 146.7751 deg

Mean anomaly: 213.6394 deg

Mean motion: 14.28106228 rev/day

Mean motion (dot): 0.00004669 rev/day2

B* drag term: 0.0018515568 1/REarth

Two-line elements (TLE)

Creation date: Sept. 4, 2025, 10:13 a.m.

Reference frame: TEME

Reference center: EARTH

Epoch: Sept. 3, 2025, 11:52 p.m. UTC

TLE line 0: 0 METEOR 2-7 DEB

TLE line 1: 1 43301U 81043Y 25246.99503879 .00004669 00000-0 18516-2 0 9994

TLE line 2: 2 43301 81.2617 351.9956 0046959 146.7751 213.6394 14.28106228473950

Live tracking on map

Real-time ground track for satellite METEOR 2-7 DEB.

In-orbit conjunctions

A list of the most updated potential collisions computed for object METEOR 2-7 DEB.

Target Orbit TCA Probability of collision Miss distance Type
FENGYUN 1C DEB SSO 2025-08-01 13:18:41 0.0006746886 43.0 (m) DEBRIS
CZ-6A DEB SSO 2025-01-28 01:54:42 0.0001116069 155.0 (m) DEBRIS
DMSP 5D-2 F13 DEB SSO 2024-07-14 13:12:28 0.000400895 52.0 (m) DEBRIS

Associated space launch

Second generation soviet meteorological satellite

METEOR 2-7 DEB was lifted into orbit during the mission ‘Vostok 8A92M | Meteor-2 7’, on board a Vostok 8A92M space rocket.

The launch took place on May 14, 1981, 9:45 p.m. from 43/3 (43L).

For more information about the launch, click the button.

Launch to space Vostok 8A92M | Meteor-2 7
Vostok 8A92M | Meteor-2 7

Agency: N/A

Status: Launch Successful

Launch date: May 14, 1981, 9:45 p.m. UTC

Rocket: Vostok 8A92M

Launch pad: 43/3 (43L)

Location: Plesetsk Cosmodrome, Russian Federation

...

Latest news about this satellite

There are no fresh news available about this satellite. Check back as we update our databases every day.


Newsletter sign-up

Weekly statistics, charts and insights to help you stay on top of the space industry.